Snowfall_Accumulation
0.0 0.0 0.0 0.0 0.0 0.0 0.0 0.0 0.0 0.0 0.0 0.0 0.0 0.0 0.0 0.0 0.0 0.0 0.0 0.0 0.0 0.0 0.0 0.0 0.0 0.0 0.0 0.0 0.0 0.0 0.0 0.0 0.0 0.0 0.0 0.0 0.0 0.0
0.0 0.0 0.0 0.0 0.0 0.0 0.0 0.0 0.0 0.1 0.0 0.0 0.0 0.0 0.0 0.0 0.0 0.0 0.0 0.0 0.0 0.0 0.0 0.0 0.0 0.0 0.0 0.0 0.0 0.0 0.0 0.0 0.0 0.0 0.0 0.0 0.0 0.0
0.0 0.0 0.0 0.0 0.0 0.0 0.0 0.0 0.0 0.0 0.0 1.0 0.8 0.4 0.0 0.0 0.0 0.0 0.0 0.0 0.0 0.0 0.0 0.0 0.0 0.0 0.0 0.0 0.0 0.0 0.0 0.0 0.0 0.0 0.0 0.0 0.0 0.0
0.0 0.0 0.0 0.0 0.0 0.0 0.0 0.3 0.0 0.1 0.9 0.8 0.1 0.1 0.0 0.0 0.0 0.0 0.0 0.0 0.1 0.0 0.0 0.0 0.0 0.0 0.0 0.0 0.0 0.0 0.0 0.0 0.0 0.0 0.0 0.0 0.0 0.0
0.0 0.0 0.0 0.0 0.0 0.0 0.8 0.3 0.1 0.9 0.4 0.5 0.2 0.0 0.0 0.0 0.0 0.0 0.0 0.0 0.0 0.0 0.0 0.0 0.0 0.0 0.0 0.0 0.0 0.0 0.0 0.0 0.0 0.0 0.0 0.0 0.0 0.0
0.0 0.0 0.0 0.0 0.1 0.5 0.9 0.5 0.2 0.1 0.0 0.3 0.0 0.7 0.4 0.0 0.4 0.2 0.0 0.0 0.0 0.0 0.0 0.0 0.0 0.0 0.0 0.0 0.0 0.0 0.0 0.0 0.0 0.0 0.0 0.0 0.0 0.0
0.7 1.8 1.3 0.6 0.3 0.1 0.2 0.4 0.0 0.0 0.7 2.4 2.3 1.4 0.8 0.3 0.1 0.0 0.0 0.0 0.0 0.0 0.0 0.0 0.0 0.0 0.0 0.0 0.0 0.0 0.0 0.0 0.0 0.0 0.0 0.0 0.0 0.0
1.3 1.1 0.6 0.8 0.4 0.0 0.0 0.0 0.0 0.8 2.7 4.0 3.4 1.5 0.0 0.0 0.0 0.0 0.9 2.0 2.2 0.0 0.0 0.1 0.0 0.0 0.0 0.0 0.0 0.0 0.0 0.0 0.0 0.0 0.0 0.0 0.0 0.0
2.1 1.9 1.1 0.4 0.3 0.2 0.0 0.0 0.1 0.4 0.4 0.4 0.3 0.1 0.2 0.0 1.8 3.5 2.2 2.7 1.6 0.0 0.1 0.5 0.0 0.0 0.0 0.0 0.0 0.0 0.0 0.0 0.0 0.0 0.0 0.0 0.0 0.0
0.5 0.5 0.0 0.0 0.0 0.1 0.2 1.5 0.9 0.2 0.0 0.0 0.0 0.1 0.5 0.3 0.4 0.8 0.7 0.9 0.4 0.0 0.1 2.3 0.1 0.1 0.0 0.0 0.0 0.0 0.0 0.0 0.0 0.0 0.0 0.0 0.0 0.0
0.1 0.0 0.1 0.1 0.0 0.0 1.0 1.5 0.2 0.0 0.0 0.0 0.1 0.1 0.0 0.0 0.0 1.6 3.1 3.3 2.2 0.1 0.0 0.7 0.3 0.2 0.0 0.0 0.0 0.0 0.0 0.0 0.0 0.0 0.0 0.0 0.0 0.0
0.0 0.0 0.0 0.0 0.0 0.3 0.5 0.1 0.6 0.0 0.9 0.7 0.0 0.0 0.0 0.0 0.0 0.1 3.4 11.8 5.6 4.6 0.0 4.0 1.6 0.9 8.1 1.5 1.4 0.8 0.0 0.0 0.0 0.0 0.0 0.0 0.0 0.1
0.3 0.0 0.0 0.1 0.5 0.1 0.0 0.0 0.1 0.1 0.1 0.1 0.7 0.0 0.0 0.5 0.6 0.6 1.6 10.4 15.8 9.7 0.0 8.3 11.5 3.5 9.5 3.1 2.9 2.6 1.6 0.0 0.0 0.0 0.0 0.0 0.1 0.1
0.2 0.0 0.2 0.7 0.0 0.0 0.0 0.1 0.1 0.2 0.0 0.1 0.2 0.2 0.2 0.3 0.2 0.2 0.7 1.8 3.5 9.3 3.4 5.6 21.8 9.3 14.5 10.1 4.4 4.7 3.5 2.6 1.2 1.6 2.1 1.3 0.6 0.4
0.1 0.4 0.4 0.0 0.0 0.0 0.0 0.0 0.0 0.0 0.5 1.9 1.3 0.5 0.3 0.6 1.1 3.6 3.9 4.2 5.2 5.8 6.9 7.0 11.1 12.0 16.3 15.3 9.6 5.8 8.0 5.8 4.1 7.8 8.1 6.9 3.0 2.3
0.9 0.8 0.0 0.0 0.0 0.0 0.0 0.0 0.0 0.1 1.6 3.7 3.7 1.9 2.2 4.1 4.6 5.5 9.9 9.3 12.8 9.9 8.9 8.3 8.8 11.3 15.0 8.8 10.1 9.2 6.9 13.4 7.7 7.4 8.8 6.8 4.8 2.9
0.3 0.0 0.0 0.0 0.0 0.0 0.0 0.0 0.0 0.0 1.4 1.8 3.7 4.0 4.2 5.8 7.1 9.2 13.0 15.4 16.4 12.1 11.5 9.3 7.6 7.1 7.0 7.5 10.5 7.3 8.8 10.7 10.2 10.1 10.2 11.5 6.9 1.7
0.0 0.0 0.0 0.2 0.1 0.2 0.1 1.1 1.5 1.3 2.3 5.1 5.5 5.6 8.2 9.6 11.6 13.5 15.0 16.6 16.1 11.1 11.5 9.4 8.2 9.7 6.7 5.8 5.7 11.8 9.5 11.8 11.0 10.1 9.6 12.7 10.0 4.2
0.0 0.4 1.2 1.3 1.1 1.8 0.6 3.1 4.6 3.3 5.4 8.4 8.8 9.0 10.7 11.9 12.3 14.6 13.3 13.6 12.3 9.7 9.1 8.2 10.4 14.6 17.6 8.8 4.8 4.9 17.2 13.3 9.7 9.0 7.0 6.4 8.2 6.1
0.2 1.8 2.6 2.9 3.4 4.4 5.0 6.3 6.1 5.2 7.2 7.7 10.1 10.7 11.9 15.6 15.7 14.9 12.8 12.8 11.7 8.1 6.6 4.3 5.6 10.9 23.8 20.7 17.4 10.1 6.8 13.9 11.4 10.8 7.6 5.3 3.9 1.6
1.7 1.6 2.1 2.4 3.4 3.9 4.3 5.3 6.4 9.6 12.1 14.2 12.0 12.3 12.8 18.4 16.1 11.1 10.6 6.6 6.4 7.0 7.4 2.5 1.2 3.0 8.8 12.1 14.4 5.9 8.6 5.8 5.5 12.2 10.6 10.5 7.3 5.1
1.2 1.8 1.6 1.2 3.2 4.2 5.8 6.0 8.1 8.2 10.1 10.6 11.7 12.5 14.5 16.5 16.7 11.6 8.5 10.9 8.1 6.7 6.4 3.1 5.1 8.0 10.1 11.2 8.8 6.6 7.6 6.6 2.8 2.3 2.1 4.9 18.4 25.5
1.3 1.7 1.8 2.7 3.0 4.2 5.7 7.6 10.0 10.4 11.5 14.9 15.0 14.2 14.8 15.3 7.8 8.0 8.3 8.5 9.8 9.1 6.8 8.9 7.0 6.4 6.7 8.3 9.3 8.7 4.5 4.5 4.1 5.3 7.0 2.3 2.5 1.8